Retour au catalogue

KUIPER-00408

ActifCommunicationsLEO
NORAD 68924·PAYLOAD·🇺🇸 United States

Lancé Apr 30, 2026 depuis Guiana Space Centre

Loading…

Prochains Passages (prochaines 24 heures)

TLE

FraisSource: CelesTrak SupGP

Époque: Sep 14, 2026, 22:06 UTC

1 68924C 26098F   26257.92093750  .00004935  00000+0  64604-3 0  2571
2 68924  51.9000  16.2826 0000505 100.2923 248.9172 14.79927790    17

Suivez KUIPER-00408 en temps réel avec AllMySat

Download on the App Store